24h Messdaten per 16.01.2019 um 17:08:02

Datum Zeit Luftdruck Temp Balkon Feuchte Balkon Temp Strasse Feuchte Strasse Wind km/h Wind Boe Wind aus (Grad) Regen l/15min Licht Lux Sonne h/Monat
16.01.19 17:08:02 996 3.8 42 0.0
16.01.19 17:03:02 997 4.2 41 6.2 73 0.0
16.01.19 16:58:02 997 4.1 42 6.2 73 0.0
16.01.19 16:53:02 997 3.9 42 6.2 73 0.0
16.01.19 16:48:02 997 3.7 43 6.2 73 0.0
16.01.19 16:43:02 997 3.9 42 6.3 73 0.0
16.01.19 16:39:02 997 3.4 44 6.3 73 0.0
16.01.19 16:34:02 997 3.7 44 6.3 72 0.0
16.01.19 16:29:01 997 3.6 44 6.3 72 0.0
16.01.19 16:23:02 997 3.8 43 6.4 72 0.0
16.01.19 16:18:02 997 3.9 42 6.5 72 0.0
16.01.19 16:13:02 997 4.0 41 6.5 72 2.2 3.6 112.5 0.0
16.01.19 16:08:03 998 4.2 41 6.5 72 2.2 3.6 112.5 0.0
16.01.19 16:03:03 998 4.2 40 6.6 71 1.4 0.0 112.5 0.0
16.01.19 15:58:03 998 4.3 39 6.6 71 1.1 0.0 247.5 0.0
16.01.19 15:53:02 998 4.8 38 6.6 71 1.1 0.0 247.5 0.0
16.01.19 15:48:02 998 5.0 38 6.6 71 1.1 0.0 22.5 0.0
16.01.19 15:43:02 998 5.0 37 6.6 71 0.4 2.2 225 0.0
16.01.19 15:39:02 998 5.0 38 6.6 70 0.4 2.2 225 0.0
16.01.19 15:34:02 998 5.1 38 6.6 70 0.0 2.2 225 0.0
16.01.19 15:29:01 998 5.1 38 6.6 70 0.0 0.0 270 0.0
16.01.19 15:24:01 998 5.1 38 6.6 70 0.0 0.0 270 0.0
16.01.19 15:19:01 998 5.1 38 6.6 70 0.0 0.0 270 0.0
16.01.19 15:14:01 998 5.0 37 6.7 70 0.0 0.0 315 0.0
16.01.19 15:08:02 998 5.0 37 6.8 70 0.0 0.0 315 0.0
16.01.19 15:03:02 5.0 37 6.8 70 0.0 0.0 247.5 0.0
16.01.19 14:58:02 998 5.3 37 6.8 70 0.0 0.0 135 0.0
16.01.19 14:54:01 998 5.2 37 6.8 71 0.0 0.0 135 0.0
16.01.19 14:49:01 998 5.3 36 6.8 71 1.1 0.0 135 0.0
16.01.19 14:44:01 998 5.1 37 1.1 5.4 135 0.0
16.01.19 14:38:02 999 5.2 37 6.7 71 1.1 5.4 135 0.0
16.01.19 14:33:02 999 5.0 37 6.7 71 0.7 0.0 0 0.0
16.01.19 14:28:02 999 5.1 37 6.7 72 0.7 3.2 112.5 0.0
16.01.19 14:24:01 999 5.3 37 6.6 72 0.7 3.2 112.5 0.0
16.01.19 14:19:01 999 5.2 37 6.6 72 1.1 1.8 90 0.0
16.01.19 14:14:01 999 5.2 38 6.5 72 2.9 3.2 0 0.0
16.01.19 14:08:04 999 5.1 38 6.5 72 2.9 3.2 0 0.0
16.01.19 14:03:04 999 5.1 38 6.5 72 2.2 2.9 157.5 0.0
16.01.19 13:58:04 1000 4.9 38 6.5 72 4.0 2.9 315 0.0
16.01.19 13:53:02 1000 5.1 39 6.4 72 4.0 2.9 315 0.0
16.01.19 13:48:02 1000 4.8 38 6.4 72 4.0 9.0 157.5 0.0
16.01.19 13:43:02 1000 4.9 38 6.4 72 5.0 6.5 67.5 0.0
16.01.19 13:38:02 1000 6.4 72 5.0 6.5 67.5 0.0
16.01.19 13:33:02 1000 5.1 37 6.3 73 5.0 10.8 157.5 0.0
16.01.19 13:29:01 1000 5.0 38 6.3 73 4.3 3.6 112.5
16.01.19 13:23:02 1000 4.9 39 6.3 73 4.3 3.6 112.5 0.0
16.01.19 13:18:02 1000 4.8 39 6.2 73 4.3 7.6 292.5 0.0
16.01.19 13:13:02 1001 4.9 39 6.2 73 4.7 4.0 202.5 0.0
16.01.19 13:08:02 1001 5.0 39 6.2 73 4.7 4.0 202.5 0.0
16.01.19 13:03:02 1001 4.9 39 6.2 73 4.0 4.7 90 0.0
16.01.19 12:58:02 1001 5.0 38 6.2 74 4.0 5.8 112.5 0.0
16.01.19 12:54:01 1001 4.9 38 6.2 74 4.0 5.8 112.5 0.0
16.01.19 12:49:01 1001 4.7 39 6.1 74 5.0 5.0 112.5 0.0
16.01.19 12:44:01 1001 4.8 40 6.1 74 2.9 6.1 112.5 0.0
16.01.19 12:38:02 1001 4.6 40 6.0 74 2.9 6.1 112.5 0.0
16.01.19 12:33:02 1001 4.5 39 6.0 74 2.9 6.1 67.5 0.0
16.01.19 12:28:01 1001 4.6 40 6.0 74 2.9 4.3 67.5 0.0
16.01.19 12:23:01 1001 4.5 40 6.0 74 5.0 5.8 22.5 0.0
16.01.19 12:19:01 1002 4.5 40 6.0 74 5.0 5.8 22.5 0.0
16.01.19 12:14:01 1002 4.5 40 6.0 75 4.7 6.5 112.5 0.0
16.01.19 12:08:03 1002 4.6 40 6.0 75 4.7 6.5 112.5 0.0
16.01.19 12:03:03 1002 4.4 40 5.9 75 4.7 2.2 202.5 0.0
16.01.19 11:58:03 1002 4.5 41 5.9 75 3.6 3.6 90 0.0
16.01.19 11:54:01 1002 4.3 40 5.9 75 3.6 3.6 90 0.0
16.01.19 11:49:01 1002 4.2 41 5.8 75 3.6 9.4 337.5 0.0
16.01.19 11:44:01 1002 4.3 41 5.8 76 3.2 4.7 90 0.0
16.01.19 11:38:02 1002 4.2 41 5.8 76 3.2 4.7 90 0.0
16.01.19 11:33:02 1002 4.2 41 5.8 76 4.3 5.4 112.5 0.0
16.01.19 11:28:02 4.2 41 5.8 76 4.7 13.0 135 0.0
16.01.19 11:23:02 1002 4.3 41 4.7 13.0 135 0.0
16.01.19 11:18:02 1002 4.3 41 5.8 76 4.3 3.2 67.5 0.0
16.01.19 11:13:02 1002 4.2 41 5.7 77 4.0 3.2 67.5 0.0
16.01.19 11:08:02 1002 4.3 41 5.7 77 4.0 3.2 67.5 0.0
16.01.19 11:03:02 1003 4.1 41 5.7 77 4.0 4.7 112.5 0.0
16.01.19 10:58:02 1003 4.2 42 5.7 77 4.7 4.0 157.5 0.0
16.01.19 10:53:02 1003 4.1 42 5.6 77 4.7 4.0 157.5 0.0
16.01.19 10:48:01 1003 4.0 42 4.3 9.0 202.5 0.0
16.01.19 10:43:01 1003 4.1 42 5.6 77 3.6 5.8 135 0.0
16.01.19 10:38:02 1003 3.9 42 5.6 77 3.6 5.8 135 0.0
16.01.19 10:33:02 1003 3.9 42 5.6 77 4.3 5.4 135 0.0
16.01.19 10:28:01 1003 3.9 42 5.6 77 3.2 3.2 135 0.0
16.01.19 10:23:02 1003 3.8 42 5.6 76 3.2 3.2 135 0.0
16.01.19 10:18:02 1003 3.9 42 5.6 76 3.2 5.8 112.5 0.0
16.01.19 10:13:02 1003 3.8 42 5.6 76 2.9 0.0 247.5 0.0
16.01.19 10:08:05 1003 3.8 42 5.6 76 2.9 0.0 247.5 0.0
16.01.19 10:03:05 1003 3.8 42 5.6 76 2.5 3.6 135 0.0
16.01.19 09:58:05 1003 3.9 42 5.6 76 4.0 2.5 67.5 0.0
16.01.19 09:53:01 1003 3.9 42 5.6 76 4.0 2.5 67.5 0.0
16.01.19 09:48:01 1003 5.6 76 3.6 6.1 112.5 0.0
16.01.19 09:43:01 1003 3.9 42 5.6 76 2.9 4.3 67.5 0.0
16.01.19 09:38:02 1003 3.9 41 2.9 4.3 67.5 0.0
16.01.19 09:33:02 1003 3.9 42 5.6 76 2.9 7.2 135 0.0
16.01.19 09:28:01 1003 3.9 42 5.7 77 3.2 7.6 135 0.0
16.01.19 09:23:01 1004 3.9 42 5.6 77 3.2 7.6 135 0.0
16.01.19 09:18:01 1003 4.0 42 5.7 77 4.0 2.9 67.5 0.0
16.01.19 09:13:01 1003 4.0 42 5.7 77 3.2 10.1 67.5 0.0
16.01.19 09:08:02 1003 4.0 42 5.7 77 3.2 10.1 67.5 0.0
16.01.19 09:03:02 1003 4.0 42 5.7 78 2.9 3.2 135 0.0
16.01.19 08:58:02 1003 4.0 43 5.7 78 4.0 6.1 67.5 0.0
16.01.19 08:53:01 1003 4.0 43 5.7 78 4.0 6.1 67.5 0.0
16.01.19 08:48:01 1003 4.1 43 5.8 78 5.0 5.8 67.5 0.0
16.01.19 08:43:01 1003 4.1 43 5.8 78 4.3 11.9 67.5 0.0
16.01.19 08:38:01 1003 4.1 43 5.8 78 4.3 11.9 67.5 0.0
16.01.19 08:33:01 1003 4.1 43 5.8 78 4.3 7.2 22.5 0.0
16.01.19 08:29:01 1003 4.1 43 5.8 79 4.3 7.2 225 0.0
16.01.19 08:23:02 1003 4.2 43 5.8 79 4.3 7.2 225 0.0
16.01.19 08:18:02 1003 4.2 43 5.8 79 4.0 1.8 67.5 0.0
16.01.19 08:13:02 1003 4.2 43 5.8 79 5.0 4.7 45 0.0
16.01.19 08:08:04 1003 4.3 43 5.8 79 5.0 4.7 45 0.0
16.01.19 08:03:04 1003 4.2 43 5.9 79 4.7 8.6 112.5 0.0
16.01.19 07:58:04 1003 4.3 43 5.9 78 4.0 6.1 112.5 0.0
16.01.19 07:53:01 1003 4.3 43 5.9 79 4.0 6.1 112.5 0.0
16.01.19 07:48:01 1003 4.3 43 6.0 79 4.7 4.3 22.5 0.0
16.01.19 07:43:01 1003 4.4 42 5.9 79 4.7 9.0 90 0.0
16.01.19 07:38:02 1003 6.0 79 4.7 9.0 90 0.0
16.01.19 07:33:02 1004 4.4 42 20.7 20 4.7 6.8 45 0.0
16.01.19 07:28:02 1003 4.4 43 20.7 20 4.0 5.8 90 0.0
16.01.19 07:23:02 1003 4.5 42 4.0 5.8 90 0.0
16.01.19 07:18:02 1003 4.5 43 4.0 6.1 112.5 0.0
16.01.19 07:13:02 1004 4.5 43 3.6 5.4 45 0.0
16.01.19 07:08:02 1004 4.5 43 3.6 5.4 45 0.0
16.01.19 07:03:02 1004 4.3 3.6 0 0.0
16.01.19 06:58:02 1004 4.4 44 5.0 10.8 112.5 0.0
16.01.19 06:53:03 1004 4.5 43 5.0 10.8 112.5 0.0
16.01.19 06:48:03 1004 4.4 44 5.4 9.7 45 0.0
16.01.19 06:43:02 4.6 44 4.7 7.6 90 0.0
16.01.19 06:38:04 1004 4.6 43 4.7 7.6 90 0.0
16.01.19 06:33:04 1004 4.6 44 4.3 5.0 67.5 0.0
16.01.19 06:28:04 1004 4.6 44 6.5 6.5 22.5 0.0
16.01.19 06:23:02 1004 4.7 44 6.5 6.5 22.5 0.0
16.01.19 06:18:02 1004 4.7 44 4.7 6.8 90 0.0
16.01.19 06:13:02 1004 4.6 44 4.7 7.6 67.5 0.0
16.01.19 06:08:03 1004 4.7 44 4.7 7.6 67.5 0.0
16.01.19 06:03:03 1004 4.7 45 5.0 19.1 90 0.0
16.01.19 05:58:03 1004 4.7 11.2 112.5 0.0
16.01.19 05:53:01 1004 4.7 45 4.7 11.2 112.5 0.0
16.01.19 05:48:01 1004 4.7 45 4.7 6.1 67.5 0.0
16.01.19 05:43:01 1004 4.8 45 5.8 9.0 112.5 0.0
16.01.19 05:38:02 1004 4.8 45 5.8 9.0 112.5 0.0
16.01.19 05:33:01 1004 4.8 45 5.4 5.0 112.5 0.0
16.01.19 05:28:01 1004 4.8 45 5.8 4.0 0 0.0
16.01.19 05:23:02 1004 4.7 46 5.8 4.0 0 0.0
16.01.19 05:18:02 1004 4.7 46 6.1 13.7 112.5 0.0
16.01.19 05:13:02 1004 4.7 46 6.1 90 6.1 9.4 112.5 0.0
16.01.19 05:08:02 1004 4.7 47 6.1 90 6.1 9.4 112.5 0.0
16.01.19 05:03:02 1005 4.7 47 6.1 91 4.7 4.7 112.5 0.0
16.01.19 04:58:02 1005 4.5 47 6.1 91 5.8 4.7 315 0.0
16.01.19 04:53:01 1005 6.1 92 5.8 4.7 315 0.0
16.01.19 04:48:01 1005 4.5 48 6.1 92 5.8 4.0 67.5 0.0
16.01.19 04:43:01 1005 4.6 48 6.1 92 6.5 6.5 292.5 0.0
16.01.19 04:38:02 1005 4.6 49 6.1 93 6.5 6.5 292.5 0.0
16.01.19 04:33:01 1005 4.6 49 6.1 93 6.5 10.1 112.5 0.0
16.01.19 04:28:01 1005 4.6 49 6.1 93 4.7 13.3 112.5 0.0
16.01.19 04:23:02 1005 4.6 49 6.1 93 4.7 13.3 112.5 0.0
16.01.19 04:18:02 1005 4.6 49 6.1 94 5.4 10.4 90 0.0
16.01.19 04:13:02 1005 4.6 50 6.1 94 4.7 2.9 67.5 0.0
16.01.19 04:08:04 1005 4.5 50 4.7 2.9 67.5 0.0
16.01.19 04:03:04 1005 4.6 50 6.1 95 5.4 6.1 135 0.0
16.01.19 03:58:04 1005 4.6 50 6.1 95 5.0 4.7 112.5 0.0
16.01.19 03:53:01 1005 4.6 50 6.1 95 5.0 4.7 112.5 0.0
16.01.19 03:48:01 1005 4.6 51 6.1 96 4.0 4.7 112.5 0.0
16.01.19 03:43:01 1005 4.5 51 6.1 96 3.2 11.9 270 0.0
16.01.19 03:38:02 1005 4.5 51 6.0 96 3.2 11.9 270 0.0
16.01.19 03:33:02 1005 4.5 52 6.0 96 2.5 4.7 90 0.0
16.01.19 03:28:02 1005 4.2 53 6.0 97 3.6 3.6 135 0.0
16.01.19 03:23:01 1005 4.4 53 3.6 3.6 135 0.0
16.01.19 03:18:01 1006 4.4 53 6.0 97 4.0 5.8 90 0.0
16.01.19 03:13:01 1005 4.3 53 6.0 97 3.6 6.8 135 0.0
16.01.19 03:08:02 1005 4.3 54 6.1 98 3.6 6.8 135 0.0
16.01.19 03:03:02 1006 4.4 55 6.1 98 4.3 6.1 90 0.0
16.01.19 02:58:02 1006 4.3 56 6.1 98 4.3 6.1 225 0.0
16.01.19 02:53:01 1006 4.2 56 6.1 98 4.3 6.1 225 0.0
16.01.19 02:48:01 1006 4.4 56 6.1 98 4.3 10.8 135 0.0
16.01.19 02:43:01 1006 4.4 59 6.1 99 5.0 10.4 45 0.0
16.01.19 02:38:01 1006 4.2 60 6.1 99 5.0 10.4 45 0.0
16.01.19 02:33:01 1006 4.2 61 6.1 99 4.7 3.6 112.5 0.0
16.01.19 02:28:01 1006 4.0 60 6.2 99 5.4 4.3 67.5 0.0
16.01.19 02:23:00 1006 4.3 60 6.2 99 5.4 4.3 67.5 0.0
16.01.19 02:18:00 1006 4.4 58 6.2 99 6.1 5.0 315 0.0
16.01.19 02:13:00 1006 4.5 57 6.2 99 5.0 6.5 112.5 0.0
16.01.19 02:08:02 1006 4.5 57 6.2 99 5.0 6.5 112.5 0.0
16.01.19 02:03:02 1006 4.5 59 6.2 99 5.0 10.8 112.5 0.0
16.01.19 01:58:02 1006 4.4 61 6.2 99 4.0 9.0 135 0.0
16.01.19 01:53:01 1006 4.2 61 6.2 99 4.0 9.0 135 0.0
16.01.19 01:48:01 1006 4.3 62 6.2 99 4.3 6.8 112.5 0.0
16.01.19 01:43:01 1006 4.2 62 6.2 98 5.4 7.6 112.5 0.0
16.01.19 01:38:00 1006 4.2 63 6.2 98 5.4 7.6 112.5 0.0
16.01.19 01:33:00 1006 4.1 63 6.2 98 5.0 12.2 135 0.0
16.01.19 01:28:00 1006 4.2 64 6.2 98 5.4 9.7 112.5 0.0
16.01.19 01:23:00 1006 4.2 63 6.2 98 5.4 9.7 112.5 0.0
16.01.19 01:18:00 1006 4.2 63 6.3 98 4.7 7.2 112.5 0.0
16.01.19 01:13:00 1006 4.3 62 6.3 97 4.0 0.0 112.5 0.0
16.01.19 01:08:01 1007 4.4 59 6.3 97 4.0 0.0 112.5 0.0
16.01.19 01:03:01 1007 4.4 58 6.3 97 5.0 7.2 22.5 0.0
16.01.19 00:58:01 1007 4.6 59 6.4 96 4.3 8.3 112.5 0.0
16.01.19 00:53:00 1007 4.5 58 6.4 96 4.3 8.3 112.5 0.0
16.01.19 00:48:00 1007 6.4 96 4.7 5.8 90 0.0
16.01.19 00:43:00 1007 4.7 55 6.4 96 5.8 6.1 112.5 0.0
16.01.19 00:38:00 1007 4.8 53 6.4 96 5.8 6.1 112.5 0.0
16.01.19 00:33:00 1007 4.8 53 6.3 96 4.0 7.6 135 0.0
16.01.19 00:28:00 1007 4.6 54 6.4 96 4.0 1.8 112.5 0.0
16.01.19 00:23:00 1007 4.6 53 6.3 96 4.0 1.8 112.5 0.0
16.01.19 00:18:00 1007 4.5 53 6.4 96 4.3 9.0 112.5 0.0
16.01.19 00:13:00 1007 4.6 52 6.4 96 4.3 9.0 270 0.0
16.01.19 00:08:02 1007 4.7 52 6.4 96 4.3 9.0 270 0.0
16.01.19 00:03:02 1007 4.9 51 6.4 96 4.0 5.4 135 0.0
15.01.19 23:58:02 1007 4.9 52 6.4 96 4.0 3.6 112.5 0.0
15.01.19 23:53:00 1007 4.9 51 6.4 96 4.0 3.6 112.5 0.0
15.01.19 23:48:00 1007 5.0 51 6.5 96 4.7 0.0 270 0.0
15.01.19 23:43:00 1007 5.0 51 6.4 97 5.8 12.2 135 0.0
15.01.19 23:38:01 1007 5.0 51 6.4 97 5.8 12.2 135 0.0
15.01.19 23:33:01 1007 5.0 51 6.4 97 4.7 9.7 67.5 0.0
15.01.19 23:28:01 1007 5.0 52 6.4 97 4.7 2.2 22.5 0.0
15.01.19 23:23:01 1007 5.0 52 6.4 97 4.7 2.2 22.5 0.0
15.01.19 23:18:01 1007 5.0 52 6.4 97 4.7 2.5 247.5 0.0
15.01.19 23:13:01 1008 5.0 53 6.4 97 5.8 5.0 67.5 0.0
15.01.19 23:08:01 1008 4.9 53 6.4 97 5.8 5.0 67.5 0.0
15.01.19 23:03:01 1008 4.9 54 6.3 97 5.4 9.4 135 0.0
15.01.19 22:58:01 1008 4.8 53 6.3 97 5.4 5.0 157.5 0.0
15.01.19 22:53:00 1008 4.9 53 6.3 97 5.4 5.0 157.5 0.0
15.01.19 22:48:00 1008 4.9 53 6.3 97 5.4 7.6 45 0.0
15.01.19 22:43:00 1008 4.8 53 6.3 97 6.1 8.3 67.5 0.0
15.01.19 22:38:01 1008 4.8 54 6.3 97 6.1 8.3 67.5 0.0
15.01.19 22:33:01 1008 4.8 54 6.3 97 5.8 6.1 112.5 0.0
15.01.19 22:28:00 1008 4.7 55 6.3 97 4.7 10.1 112.5 0.0
15.01.19 22:23:00 1008 6.2 97 4.7 10.1 112.5 0.0
15.01.19 22:18:00 1008 4.6 57 6.2 97 5.0 10.8 67.5 0.0
15.01.19 22:13:00 1008 4.4 59 6.2 97 3.6 6.8 112.5 0.0
15.01.19 22:08:03 1008 4.4 59 6.2 97 3.6 6.8 112.5 0.0
15.01.19 22:03:03 1008 4.4 60 6.2 97 2.9 4.7 135 0.0
15.01.19 21:58:03 1008 4.3 61 6.2 97 4.0 4.0 0 0.0
15.01.19 21:53:01 1008 4.2 61 6.2 97 4.0 4.0 0 0.0
15.01.19 21:48:00 1008 4.2 60 6.3 96 4.7 4.3 112.5 0.0
15.01.19 21:43:00 1008 4.1 60 6.3 96 4.7 2.5 22.5 0.0
15.01.19 21:38:01 1008 4.2 58 6.3 96 4.7 2.5 22.5 0.0
15.01.19 21:33:01 1008 4.3 58 6.3 96 4.3 4.3 315 0.0
15.01.19 21:28:00 1008 4.2 57 6.3 96 4.3 5.0 292.5 0.0
15.01.19 21:23:01 1008 4.3 56 6.3 95 4.3 5.0 292.5 0.0
15.01.19 21:18:01 1008 4.4 55 6.3 95 4.3 6.1 112.5 0.0
15.01.19 21:13:01 1008 4.5 53 6.3 95 4.7 4.0 112.5 0.0
15.01.19 21:08:01 1008 4.6 53 6.3 95 4.7 4.0 112.5 0.0
15.01.19 21:03:01 1008 4.7 54 6.4 95 4.7 6.5 67.5 0.0
15.01.19 20:58:01 1008 4.6 55 6.4 95 3.6 5.4 112.5 0.0
15.01.19 20:53:01 1008 4.5 55 6.4 94 3.6 5.4 112.5 0.0
15.01.19 20:48:01 1008 4.4 56 6.4 94 3.6 2.9 67.5 0.0
15.01.19 20:43:01 1008 6.5 94 3.6 1.4 67.5 0.0
15.01.19 20:38:01 1008 4.4 56 3.6 1.4 67.5 0.0
15.01.19 20:33:01 1008 4.5 54 6.5 93 4.0 5.4 112.5 0.0
15.01.19 20:28:01 1008 4.6 51 6.5 93 3.2 2.5 90 0.0
15.01.19 20:23:00 1008 4.7 51 6.5 93 3.2 2.5 90 0.0
15.01.19 20:18:00 1008 4.8 50 6.5 93 2.9 1.8 67.5 0.0
15.01.19 20:13:00 1008 4.8 50 6.5 93 3.2 5.4 112.5 0.0
15.01.19 20:08:03 1008 4.9 50 6.5 92 3.2 5.4 112.5 0.0
15.01.19 20:03:03 1008 4.9 50 6.6 92 2.9 6.5 22.5 0.0
15.01.19 19:58:03 1008 4.9 50 4.7 5.0 67.5 0.0
15.01.19 19:53:01 1008 4.9 50 6.6 92 4.7 5.0 67.5 0.0
15.01.19 19:48:00 1008 5.0 50 6.6 92 4.0 3.6 270 0.0
15.01.19 19:43:00 1008 5.0 50 6.6 92 4.3 3.6 337.5 0.0
15.01.19 19:38:01 1008 4.9 50 6.6 92 4.3 3.6 337.5 0.0
15.01.19 19:33:01 1008 4.9 51 6.6 92 4.0 4.7 202.5 0.0
15.01.19 19:28:01 1008 4.8 50 6.6 91 4.7 5.4 112.5 0.0
15.01.19 19:23:00 1008 5.0 50 6.6 91 4.7 5.4 112.5 0.0
15.01.19 19:18:00 1008 4.9 50 6.7 91 4.0 7.9 157.5 0.0
15.01.19 19:13:00 1008 4.9 50 6.7 91 4.7 6.5 112.5 0.0
15.01.19 19:08:01 1008 5.0 49 6.7 90 4.7 6.5 112.5 0.0
15.01.19 19:03:01 5.0 49 6.7 90 5.0 6.8 112.5 0.0
15.01.19 18:58:01 1008 5.0 48 6.7 90 5.0 6.1 157.5 0.0
15.01.19 18:53:00 1008 5.0 49 6.7 90 5.0 6.1 157.5 0.0
15.01.19 18:48:00 1008 5.1 48 5.8 6.8 90 0.0
15.01.19 18:43:00 1008 5.0 48 6.7 90 4.7 5.0 112.5 0.0
15.01.19 18:38:01 1008 5.1 48 6.8 90 4.7 5.0 112.5 0.0
15.01.19 18:33:01 1008 5.1 48 6.8 90 4.0 7.9 67.5 0.0
15.01.19 18:28:01 1008 5.1 49 6.8 90 4.3 2.5 0 0.0
15.01.19 18:23:00 1008 5.0 48 6.8 90 4.3 2.5 0 0.0
15.01.19 18:18:00 1008 5.1 48 6.8 89 4.0 9.0 112.5 0.0
15.01.19 18:13:00 1008 5.1 48 6.8 89 4.7 5.0 67.5 0.0
15.01.19 18:08:02 1008 5.2 47 6.8 89 4.7 5.0 67.5 0.0
15.01.19 18:03:02 1008 5.1 47 6.8 89 4.3 5.4 112.5 0.0
15.01.19 17:58:02 1008 5.2 47 6.8 88 3.6 4.7 67.5 0.0
15.01.19 17:53:01 1008 5.1 47 3.6 4.7 67.5 0.0
15.01.19 17:48:01 1008 5.2 47 6.9 88 4.0 4.0 337.5 0.0
15.01.19 17:43:01 1008 6.9 88 4.0 6.1 67.5 0.0
15.01.19 17:38:02 1008 5.3 46 6.9 88 4.0 6.1 67.5 0.0
15.01.19 17:33:01 1008 5.3 46 6.9 88 4.0 3.6 45 0.0
15.01.19 17:28:01 1008 5.4 46 6.9 89 2.9 6.5 112.5 0.0
15.01.19 17:23:01 1008 5.2 46 6.9 89 2.9 6.5 112.5 0.0
15.01.19 17:18:01 5.2 47 6.9 90 3.6 7.2 135 0.0
15.01.19 17:13:01 1008 5.3 47 6.9 90 4.3 2.2 90 0.0
Index
© 2002-2012 Thomas Dreßler
Alle Rechte vorbehalten
letzte Scriptänderung 12.11.2012